Location: Fort Wayne
(41.1310°N, 85.1290°W)
Time: 07:55:40
(UTC-05:00)

COSMOS 2428 - Visible Passes

Search period start: 19 January 2017 00:00
Search period end: 29 January 2017 00:00
Orbit: 846 x 857 km, 70.9° (Epoch: 19 January)

Date Brightness Start Highest point End Pass type
(mag) Time Alt. Az. Time Alt. Az. Time Alt. Az.
19 Jan 2.9 18:05:42 10° SSW 18:11:25 82° WNW 18:17:11 10° NNE visible
19 Jan 5.2 19:53:38 10° WNW 19:56:37 14° NW 19:59:37 10° NNW visible
20 Jan 5.2 19:41:34 10° WNW 19:44:33 14° NW 19:47:32 10° NNW visible
21 Jan 5.2 19:29:30 10° WNW 19:32:28 14° NW 19:35:27 10° NNW visible
22 Jan 5.2 19:17:26 10° WNW 19:20:24 14° NW 19:23:22 10° NNW visible
23 Jan 5.2 19:05:23 10° WNW 19:08:19 14° NW 19:11:17 10° NNW visible
24 Jan 5.2 18:53:19 10° WNW 18:56:15 14° NW 18:59:11 10° NNW visible
25 Jan 5.2 18:41:15 10° WNW 18:44:10 14° NW 18:47:06 10° NNW visible
26 Jan 5.1 18:29:11 10° WNW 18:32:06 14° NW 18:35:01 10° NNW visible
27 Jan 5.1 18:17:07 10° WNW 18:20:02 14° NW 18:22:56 10° NNW visible
